411  
ASUS42 KTBW 281116  
RWRFL  
FLORIDA REGIONAL WEATHER ROUNDUP  
NATIONAL WEATHER SERVICE TAMPA BAY RUSKIN FL  
700 AM EDT SUN AUG 28 2016  
 
NOTE: "FAIR" INDICATES FEW OR NO CLOUDS BELOW 12,000 FEET WITH NO  
SIGNIFICANT WEATHER AND/OR S TO VISIBILITY
.  
 
FLZ001>010-012>015-112-114-115-281200-  
PANHANDLE FLORIDA  
 
CITY SKY/WX TMP DP RH WIND PRES REMARKS
 
PENSACOLA CLOUDY 79 73 82 NE5 29.99R  
PENSACOLA NAS CLOUDY 80 74 81 VRB5 29.98R  
MILTON NAS CLOUDY 76 73 91 NE6 30.01  
CRESTVIEW PTCLDY 74 71 91 NE3 30.02R  
DUKE FIELD FAIR 76 72 87 NE5 30.00R  
VALPARAISO PTCLDY 78 72 83 E7 30.00R  
MARY ESTHER PTCLDY 78 73 85 E6 29.98R  
TRI COUNTY FAIR 75 72 90 NE6 30.03R  
PANAMA CITY MOCLDY 77 73 87 NE8 29.99R  
TYNDALL AFB MOCLDY 77 74 92 NE8 30.00R  
APALACHICOLA LGT RAIN 80 75 84 VRB5 29.98S  
 
STATION/POSITION SKY/WX TEMP WIND PRES WAVE SWELL
 
AIR SEA DIR/SP/G HT/PER HT/PER  
(F) (DEG/KT/KT) (MB) (FT/S) (FT/S)  
30.1N 87.6W 84 85 90/ 14/ 16 1014.8R 3/ 6  
29.2N 88.2W 85 85 90/ 12/ 16 1013.9R  
28.8N 86.0W 84 85 90/ 10/ 12 1014.4R 2/ 5 2/ 7  
PANAMA CITY BEAC 79 86 100/ 5/ 10 1015.5R  
TOWER C 84 100/ 14/ 15 1015.5S  
28.5N 84.5W 84 85 90/ 12/ 14 1014.1R 2/ 4  
 

 
FLZ011-016>038-118-127-128-134-139-239-281200-  
NORTH FLORIDA  
 
CITY SKY/WX TMP DP RH WIND PRES REMARKS
 
MARIANNA PTCLDY 75 74 96 E6 30.02R  
TALLAHASSEE PTCLDY 79 76 90 E7 30.02R  
PERRY CLEAR 76 74 94 CALM 30.03R  
CROSS CITY PTCLDY 75 75 100 NE5 30.01R  
LAKE CITY FAIR 73 73 100 NE3 30.04R  
GAINESVILLE CLEAR 77 75 93 NE3 30.01R  
MAYPORT NAS MOCLDY 82 74 76 E13 30.02S  
JACKSONVILLE PTCLDY 78 76 93 E8 30.02S  
JAX NAS MOCLDY 81 76 84 NE7 30.02F  
FERNANDINA BEA FAIR 84 73 70 E10 30.03R  
ST AUGUSTINE MOCLDY 80 74 81 E9 30.03R  
 
STATION/POSITION SKY/WX TEMP WIND PRES WAVE SWELL
 
AIR SEA DIR/SP/G HT/PER HT/PER  
(F) (DEG/KT/KT) (MB) (FT/S) (FT/S)  
SHELL POINT 79 70/ 5/ 10 1014.7  
KEATON BEACH 76 50/ 6/ 8 1015.9R  
CEDAR KEY 78 60/ 12/ 14 1015.9R  
FERNANDINA 83 86 70/ 4/ 9 1016.8R  
30.7N 81.3W 85 N/A 4/ 9  
MAYPORT 82 84 90/ 8/ 12 1016.9R  
31.4N 80.9W 83 85 70/ 14/ 16 1017.1R 4/ 9 2/ 9  
ST AUGUSTINE 81 83 70/ 12/ 14 1017.3S  
 

 
FLZ040-043>046-052-053-057-058-063-144-281200-  
INTERIOR CENTRAL FLORIDA  
 
CITY SKY/WX TMP DP RH WIND PRES REMARKS
 
OCALA PTCLDY 77 73 88 NE3 30.00S  
THE VILLAGES N/A 79 79 100 MISG 29.90S  
LEESBURG CLEAR 79 76 90 E7 30.00R  
SANFORD PTCLDY 79 75 87 NE6 29.99R  
ORLANDO EXEC PTCLDY 78 77 96 NE6 29.98R  
ORLANDO INTL PTCLDY 79 76 90 NE7 29.98R  
KISSIMMEE CLEAR 79 76 90 NE5 29.99R  
WINTER HAVEN PTCLDY 78 76 93 NE7 29.98R  
LAKELAND PTCLDY 79 79 100 NE8 29.97R  
BARTOW FAIR 77 N/A N/A NE6 29.97S  
OKEECHOBEE CLEAR 73 73 100 NE5 29.95R  
 

 
FLZ041-047-054-059-064-141-147-281200-  
EAST CENTRAL FLORIDA  
 
CITY SKY/WX TMP DP RH WIND PRES REMARKS
 
ORMOND BEACH PTCLDY 81 77 89 E6 30.00  
DAYTONA BEACH CLOUDY 81 76 84 E7 29.99S  
DELAND PTCLDY 77 75 94 N6 29.99S  
NEW SMYRNA BEA PTCLDY 82 75 78 NE7 30.00  
JFK SPACE CTR CLEAR 80 75 85 E5 29.97R  
TITUSVILLE PTCLDY 81 79 94 E7 29.99  
CAPE CANAVERAL CLEAR 80 76 89 E5 29.97R  
PATRICK AFB CLEAR 82 77 84 NE12 29.96R  
MELBOURNE MOCLDY 82 78 88 E12 29.96R  
VERO BEACH PTCLDY 82 77 84 E8 29.95R  
FT PIERCE PTCLDY 82 76 81 E9 29.94R  
STUART PTCLDY 86 77 74 E12 29.94S HX 97  
 
STATION/POSITION SKY/WX TEMP WIND PRES WAVE SWELL
 
AIR SEA DIR/SP/G HT/PER HT/PER  
(F) (DEG/KT/KT) (MB) (FT/S) (FT/S)  
28.5N 80.2W 82 82 70/ 10/ 12 1014.9R  
TRIDENT PIER 82 85 60/ 11/ 17 1014.8R  
28.4N 80.5W 84 N/A 3/ 9  
27.5N 80.2W 83 N/A 4/ 6  
 

 
FLZ050-056-061-142-242-148-248-149-249-151-251-155-255-  
160-260-281200-  
WEST CENTRAL FLORIDA  
 
CITY SKY/WX TMP DP RH WIND PRES REMARKS
 
CRYSTAL RIVER CLOUDY 77 77 100 NE3 29.99R  
INVERNESS FAIR 77 77 100 CALM 30.00R  
BROOKSVILLE CLEAR 77 76 96 NE8 29.98S  
CLEARWATER AIR FAIR 77 77 100 E5 29.96S  
ST PETE CLEARW MOCLDY 80 78 94 NE9 29.96R  
TAMPA INTL MOCLDY 79 77 94 NE7 29.97R  
TAMPA EXEC CLOUDY 79 77 94 CALM 29.98R FOG  
PLANT CITY MOCLDY 79 79 100 NE6 29.99R  
MACDILL AFB PTCLDY 78 78 100 E9 29.96R  
PETER O KNIGHT MOCLDY 81 79 94 NE9 29.96S  
ST PETERSBURG MOCLDY 81 78 91 E16 29.94R  
SARASOTA CLEAR 80 76 87 NE6 29.93R  
VENICE FAIR 79 79 100 NE7 29.94R  
 
STATION/POSITION SKY/WX TEMP WIND PRES WAVE SWELL
 
AIR SEA DIR/SP/G HT/PER HT/PER  
(F) (DEG/KT/KT) (MB) (FT/S) (FT/S)  
27.3N 84.2W 87 N/A 3/ 5  
CLEARWATER BEACH 79 87 60/ 5/ 9 1014.4R  
MIDDLE TAMPA BAY 80/ 14/ 15 1014.3R  
VENICE 78 83 40/ 5/ 7 1013.4R  
 

 
FLZ066-069-070-075>078-162-262-165-265-281200-  
SOUTHWEST FLORIDA AND KEYS  
 
CITY SKY/WX TMP DP RH WIND PRES REMARKS
 
PUNTA GORDA PTCLDY 77 77 100 NE7 29.94S  
FT MYERS CLEAR 78 76 93 NE7 29.91S  
SOUTHWEST INTL CLEAR 78 75 90 NE7 29.91S  
NAPLES CLEAR 79 77 94 NE8 29.89S  
MARATHON LGT RAIN 83 77 82 NE16 29.83S  
KEY WEST NAS CLOUDY 81 73 76 NE10 29.85S  
KEY WEST INTL MOCLDY 78 77 96 NE7 29.85S  
 
STATION/POSITION SKY/WX TEMP WIND PRES WAVE SWELL
 
AIR SEA DIR/SP/G HT/PER HT/PER  
(F) (DEG/KT/KT) (MB) (FT/S) (FT/S)  
NAPLES 86 1012.3R  
26.0N 85.6W 84 86 80/ 12/ 14 1012.7S 3/ 5  
DRY TORTUGAS 85 60/ 16/ 18 1011.6R  
SAND KEY 83 70/ 19/ 24 1011.1R  
LONG KEY 84 86 70/ 17/ 20 1010.6S  
 

 
FLZ067-068-071>074-168-172>174-281200-  
SOUTHEAST FLORIDA  
 
CITY SKY/WX TMP DP RH WIND PRES REMARKS
 
W PALM BEACH PTCLDY 84 74 71 E14 29.92R  
BOCA RATON MOCLDY 84 77 79 SE18G25 29.91  
FT LAUDER-EXEC PTCLDY 82 74 76 E16 29.90R  
FT LAUDERDALE PTCLDY 83 77 82 E17 29.89R  
POMPANO BEACH PTCLDY 83 76 79 E16 29.90R  
OPA LOCKA MOCLDY 81 75 82 E10 29.90R  
MIAMI PTCLDY 82 76 81 E10 29.89R  
WEST KENDALL CLEAR 79 76 90 E12 29.88R  
HOMESTEAD CLOUDY 81 75 83 E15G26 29.87R  
 
STATION/POSITION SKY/WX TEMP WIND PRES WAVE SWELL
 
AIR SEA DIR/SP/G HT/PER HT/PER  
(F) (DEG/KT/KT) (MB) (FT/S) (FT/S)  
PORT EVERGLADES 85 80/ 10/ 17 1012.0R  
VIRGINIA KEY 83 88 90/ 18/ 21 1012.0R  
LAKE WORTH 84 86 80/ 17/ 22 1012.7R  
FOWEY ROCKS 83 85 110/ 23/ 25 1012.3R  
SETTLEMENT POINT 84 100/ 15/ 18 1014.4R  
 

 
 
 
 
CLICK HERE TO GO TO PREVIOUS BULLETINS.

The Nexlab FL Page Main Text Page